Погода в Новом Торъяле

Россия / Республика Марий Эл     57°00′12″N   48°44′23″E
темп.,
°C
ветер,
м/с
пор.,
м/с
влажн.,
%
обл.,
%
осадки,
мм/ч
давл.,
гПа
погр.,
м
22 октября, пт
пт2200:00+8юз61398100 0.0 996386
03:00+8юз61398100 0.1 996399
06:00+8ююз71497100 0.4 994440
09:00+9юз81687100 0.4 993703
12:00+10юз91581100 0.0 994836
15:00+10зюз81381100 0.0 9941046
18:00+10юз815835 0.1 995747
21:00+9юз9168683 0.3 997939
23 октября, сб
сб2300:00+7зюз815805 0.1 1000834
03:00+6зюз71484100 0.1 1001728
06:00+5юз61387100 0.0 1002626
09:00+6зюз7117939 0.0 1004998
12:00+8зюз71069100 0.1 10051124
15:00+8юз6107114 0.1 10061018
18:00+5ююз512826 0.0 1007306
21:00+4ююз410845 0.0 1007218
24 октября, вс
вс2400:00+3ю4785100 0.0 1006122
03:00+5юз51084100 0.4 1005582
06:00+4зюз5988100 0.0 1005597
09:00+4зюз51087100 0.1 1006755
12:00+5зюз71071100 0.0 10071080
15:00+5зюз6872100 0.1 10081144
18:00+3зюз598295 0.0 1010517
21:00+2зюз369088 0.0 1011282
25 октября, пн
пн2500:00+2зюз249598 0.0 1012132
03:00+2з2594100 0.0 1013272
06:00+1зсз5897100 0.1 1013578
09:00+1ссз698687 0.6 1015701
12:00+2ссз7967100 0.1 10171221
15:00+1ссз696720 0.1 10191141
18:00−1сз411755 0.0 1022394
21:00−2сз510775 0.0 1023373
26 октября, вт
вт2600:00−3зсз37875 0.0 1024202
03:00−4з35888 0.0 1024108
06:00−4юз368863 0.0 1024136
09:000юз597079 0.0 1022428
12:00+2зюз696563 0.0 1020732
15:00+3юз596494 0.0 1019681
18:00+1юз5117672 0.0 1018369
21:00−1юз51184100 0.0 1017311